Location: Acts Church of Fort Worth
(32.6786°N, 97.2668°W)
Time: 22:37:12
(UTC+00:00)

SAR-Lupe-4 - Pass Details

Date: 18 January 2026
Orbit: 480 x 483 km, 98.1° (Epoch: 10 January)

Event Time Altitude Azimuth Distance (km) Brightness Sun altitude
Rises 00:11:13 0° 148° (SSE) 2,527 7.1 -5.4°
Reaches altitude 10° 00:13:23 10° 139° (SE) 1,653 6.1 -5.8°
Maximum altitude 00:16:37 34° 73° (ENE) 813 4.2 -6.4°
Drops below altitude 10° 00:19:53 10° 8° (N) 1,664 6.0 -7.1°
Sets 00:22:04 0° 359° (N) 2,548 7.0 -7.5°
